STARLINK-34672, 65894

Orbit data source: Space-Track

STARLINK-34672, 65894 is a payload satellite owned by SpaceX/Seattle (US) in LEO that was launched on Tue, 07 Oct 2025 UTC via an FALCON 9 launch vehicle from the Air Force Eastern Test Range (AFETR). Payload-class satellites include a variety of spacecraft equipped with specific instruments for various scientific and technological missions. These include communications satellites like Starlink; space stations such as the ISS; scientific satellites like the Hubble; Earth observation satellites from companies like Planet Labs, Umbra, and HawkEye 360; GPS; miniature CubeSats for education and research; and military/defense satellites.

Loading next visibility...
Identifier
65894, 2025-224N
Orbit
LEO
Country
Flag of USUS
Related business
Manufacturer
SpaceX/Seattle
Mission
Operational Commercial Communications
Bus & Motor
STARLINK V2MO, Unknown motor
Mass
575 kg wet, ~530 kg dry
Launch date (UTC)
2025-10-07 (5 months ago)
Launch vehicle
FALCON 9
Launch site
Air Force Eastern Test Range (AFETR)
Object type
Payload
Rocket body
Debris
Shape & HBR
Box + 2 Pan, 17.7 m
Radar Cross Section
36.964 m²

Expand to show TLE details & history
Last TLE update: 10 hours ago

TLE from 10 hours ago
0 STARLINK-34672
1 65894U 25224N   26062.16486222  .00024494  00000-0  83617-3 0  9995
2 65894  53.1594  41.7678 0001252  85.7673 274.3471 15.30208557 23874
Epoch: 2026-03-03T03:57Z
TLE epoch observation values (Epoch: 2026-03-03T03:57:24.095Z)
Latitude
-0.00002°
Longitude
-178.53046°
Altitude
476.024 km
Speed
7.629 km/s
True Right ascension
02h 47m 04s
True Declination
0° 00' 00"
Sunlit
Object was in daylight at epoch
Visualization orbit readout
Latitude
Unknown
Longitude
Unknown
Altitude
Unknown
Speed
Unknown
Apparent Right ascension
Unknown
Apparent Declination
Unknown
Sunlit
N/A
Visualization observer readout
Local Sidereal Time
17:54:20
Azimuth
Unknown
Elevation
Unknown
Doppler factor
Unknown
Orbital elements
Apogee altitude
476.304 km
Perigee altitude
474.588 km
Semi-major axis
6,853.583 km
Eccentricity
0.00013
Inclination
53.1594°
RAAN
41.7678°
Arg. of periapsis
85.7673°
True anomaly
274.33279°
Mean anomaly
274.3471°
Eccentric anomaly
274.33995°
Mean motion
3.82531 °/min
Orbital period
94.11 mins
BSTAR
0.00083617
Loading maneuver chart data...
Computing Atmospheric mass density...
Loading historical data...
Loading historical data...
Loading historical data...
Loading historical data...
Loading historical data...
Loading historical data...
Loading historical data...

Documentation

Showing up to 5 results
|